Regional Weather Roundup
Issued by NWS Pendleton, OR

Home | Current Version | Previous Version | Text Only | Print | Product List | Glossary On
Versions: 1 2 3 4 5 6 7 8 9 10 11 12 13 14 15 16 17 18 19 20 21 22 23 24 25 26 27 28 29 30 31 32 33 34 35 36 37 38 39 40 41 42 43 44 45 46 47 48 49 50
000
ASUS46 KPDT 291510
RWRPDT
PENDLETON REGIONAL WEATHER ROUNDUP
NATIONAL WEATHER SERVICE PENDLETON OREGON
800 AM PDT THU SEP 29 2016

NOTE: FAIR INDICATES FEW OR NO CLOUDS BELOW 12,000 FEET WITH NO
SIGNIFICANT WEATHER AND/OR OBSTRUCTIONS TO VISIBILITY.

# INDICATES UNOFFICIAL STATION AND DATA

WAZ520-291610-
EAST SLOPES OF WASHINGTON CASCADES

CITY            SKY/WX      TMP DP  RH  WIND    PRES   REMARKS
#CLE ELUM HS    N/A         41  40  96  CALM    29.96R
#CLE ELUM LAKE  N/A         47  43  86  CALM    29.91S
#GLENWOOD       N/A         39  38  96  CALM    29.97R
#MANASTASH CYN  N/A         48  37  65  CALM    29.98S
#NELSON 3SW     N/A         45  42  89  CALM    30.16R
#NILE           N/A         44  40  86  W1      29.26R
#RONALD 2NW     N/A         44  N/A N/A CALM    30.06R
#TEANAWAY 4NE   N/A         41  41  100 CALM    N/A
#TROUT LAKE 1NE N/A         43  42  96  CALM    29.96R
#TROUT LAKE 1E  N/A         43  42  96  CALM    29.96R
$$

WAZ521-291610-
SIMCOE HIGHLANDS

CITY            SKY/WX      TMP DP  RH  WIND    PRES   REMARKS
#CENTERVILLE 1SWN/A         41  34  76  CALM    29.95R
#GOLDENDALE 1NE N/A         44  32  62  N2      N/A
#GOLDENDALE 4W  N/A         46  42  86  CALM    30.02R
#GOODNOE HILLS  N/A         55  51  86  W7      N/A
#LYLE 6NE       N/A         51  49  93  SE1     29.92R
$$

WAZ026-291610-
KITTITAS VALLEY

CITY            SKY/WX      TMP DP  RH  WIND    PRES   REMARKS
ELLENSBURG AP   PTCLDY      47  43  86  NE3     30.00R
#ELLENSBURG CWU N/A         47  44  89  CALM    29.91S
#ELLENSBURG 3NE N/A         44  42  93  CALM    30.00R
#ELLENSBURG 1E  N/A         43  N/A N/A CALM    N/A
#KITTITAS 4N    N/A         47  41  79  SE1     29.99R
#KITTITAS 3S    N/A         41  39  93  CALM    29.96S
#THORP 6N       N/A         48  43  83  N7      29.96R
$$

WAZ027-291610-
YAKIMA VALLEY

CITY            SKY/WX      TMP DP  RH  WIND    PRES   REMARKS
SUNNYSIDE AP    PTCLDY      46  43  89  CALM    29.97R
YAKIMA AIRPORT  PTCLDY      51  43  74  W7      29.98R
YAKIMA-VAGABOND SUNNY       56  44  64  E9      29.96R
#GRANDVIEW      N/A         50  45  83  CALM    29.96R
#MABTON         N/A         49  44  83  CALM    29.96R
#NACHES 2SW     N/A         54  46  74  W5      29.98R
#TERRACE HTS    N/A         49  45  86  CALM    29.90R
#TOPPENISH      N/A         52  45  77  CALM    29.86R
#WEST VALLEY    N/A         48  42  80  CALM    29.93R
#WHITE SWAN 5E  N/A         47  42  83  CALM    29.95R
#WILEY CITY 3W  N/A         48  39  71  CALM    29.95R
$$

WAZ028-291610-
LOWER COLUMBIA BASIN...WASHINGTON

CITY            SKY/WX      TMP DP  RH  WIND    PRES   REMARKS
HANFORD         MOCLDY      57  44  62  W6      29.94R
PASCO           SUNNY       50  45  83  CALM    29.96R
PROSSER AWOS    N/A         52  46  80  CALM    29.99R
RICHLAND AWOS   SUNNY       53  48  83  CALM    29.96R
#BENTON CITY    N/A         53  47  80  CALM    29.85
#CONNELL 5N     N/A         49  40  71  CALM    29.93R
#CONNELL 5NW    N/A         49  41  74  CALM    29.89R
#ELTOPIA 6NW    N/A         56  44  64  CALM    28.93R
#KAHLOTUS       N/A         50  38  63  CALM    29.91R
#KENNEWICK 3S   N/A         55  44  66  CALM    29.93S
#PATERSON       N/A         52  46  80  CALM    29.94R
#SAGEMOOR 2W    N/A         56  43  62  CALM    29.79R
#TOUCHET 2S     N/A         43  41  93  CALM    29.94R
#WEST PASCO     N/A         51  44  77  CALM    29.96R
$$

WAZ029-291610-
FOOTHILLS OF THE BLUES...WASHINGTON

CITY            SKY/WX      TMP DP  RH  WIND    PRES   REMARKS
WALLA WALLA AP  SUNNY       59  43  55  S6      29.97R
#CLYDE 6NW      N/A         52  43  71  CALM    29.92R
#DAYTON SCHOOL  N/A         54  40  59  CALM    29.97R
#LOWDEN 2SE     N/A         47  45  93  CALM    29.93R
#PLEASANT VIEW 1N/A         56  43  62  SE8     29.92S
#PRESCOTT       N/A         46  43  89  CALM    29.94R
#WHITMAN COLLEGEN/A         56  46  69  CALM    29.98R
#WAITSBURG 5S   N/A         54  43  66  S3      30.01R
#WALLA WALLA U  N/A         54  47  77  CALM    29.94R
#WHITMAN MISSIONN/A         48  45  89  CALM    29.96R
$$

WAZ030-291610-
BLUE MOUNTAINS...WASHINGTON

CITY            SKY/WX      TMP DP  RH  WIND    PRES   REMARKS
#DIXIE 5SE      N/A         57  42  57  S6      29.93R
$$

ORZ009-041-WAZ024-291610-
COLUMBIA RIVER GORGE

CITY            SKY/WX      TMP DP  RH  WIND    PRES   REMARKS
HOOD RIVER AP   SUNNY       50  46  86  CALM    30.00R
THE DALLES AP   PTCLDY      57  49  75  CALM    29.97R
#ARLINGTON AIRPON/A         57  50  77  W6      29.95R
#CELILO DOT     N/A         59  48  67  SW3     N/A
#MOSIER 1S      N/A         53  47  80  CALM    29.97S
#MURDOCK        N/A         58  51  77  W15     29.93R
#RUFUS DOT      N/A         59  50  72  S3      N/A
#SMITHVILLE     N/A         58  51  77  N13     29.92R

$$

ORZ510-291610-
NORTH CENTRAL OREGON

CITY            SKY/WX      TMP DP  RH  WIND    PRES   REMARKS
#ANTELOPE       N/A         46  37  71  CALM    29.81R
#CHENOWITH 1W   N/A         49  49  100 W20     N/A    WCI 42
#COW CYN RST AREN/A         56  N/A N/A S1      N/A
#DUFUR 9E       N/A         59  51  75  CALM    29.96R
#GRASS VALLEY 1SN/A         51  45  80  CALM    29.94R
#KENT DOT       N/A         51  38  61  N1      N/A
#MAUPIN SCHOOL  N/A         51  42  71  CALM    30.03R
#SHANIKO 5WSW   N/A         57  34  42  N2      N/A
#SHANIKO 4NW    N/A         58  38  47  CALM    30.01R
#TYGH VALLEY 2NEN/A         47  42  83  CALM    29.96R
#WAPANITIA AIRPON/A         48  45  89  CALM    29.96R
#WASCO DOT      N/A         47  45  93  SE2     N/A
#WASCO 5NE      N/A         53  48  83  CALM    29.93R
$$

ORZ511-291610-
CENTRAL OREGON

CITY            SKY/WX      TMP DP  RH  WIND    PRES   REMARKS
BEND AIRPORT    SUNNY       52  41  66  CALM    30.03R
MADRAS AIRPORT  SUNNY       54  45  71  S3      30.03R
PRINEVILLE AP   SUNNY       45  34  65  CALM    30.04R
REDMOND AIRPORT SUNNY       48  35  60  CALM    30.03R
#ASHWOOD SCHOOL N/A         41  34  76  CALM    29.98R
#BEND 1SW       N/A         48  43  83  W2      N/A
#BEND-AWBREY    N/A         51  45  80  S3      29.90R
#CULVER         N/A         46  40  79  CALM    29.88R
#CULVER 8W      N/A         54  39  57  CALM    30.01R
#LAKE BILLY CHINN/A         48  N/A N/A CALM    30.09R
#MADRAS 4S      N/A         50  18  28  CALM    30.09R
#POWELL BUTTE 3EN/A         43  36  76  SE2     N/A
#PRINEVILLE 3N  N/A         45  42  89  CALM    29.94R

$$


ORZ509-291610-
EAST SLOPES OF OREGON CASCADES

CITY            SKY/WX      TMP DP  RH  WIND    PRES   REMARKS
#BLUE BOX PASS  N/A         48  N/A N/A S1      N/A
#CAMP SHERMAN   N/A         34  31  89  CALM    30.09R
#LA PINE DOT    N/A         40  34  79  CALM    N/A
#LA PINE 4NW    N/A         31  26  81  CALM    29.99R
#LAVA BUTTE DOT N/A         45  39  79  CALM    N/A
#SISTERS AIRPOR N/A         39  37  92  CALM    30.17S
#SISTERS ODOT   N/A         39  N/A N/A CALM    N/A
#SISTERS 3N     N/A         36  26  67  CALM    30.03S
#SUNRIVER       N/A         38  35  89  CALM    29.96R
#TUMALO 3W      N/A         54  41  61  CALM    29.78R
#WANOGA BUTTE D N/A         54  39  57  W3      N/A

$$

ORZ044-291610-
LOWER COLUMBIA BASIN...OREGON

CITY            SKY/WX      TMP DP  RH  WIND    PRES   REMARKS
HERMISTON       SUNNY       52  44  74  CALM    29.96R
#BOARDMAN SCHOOLN/A         46  41  83  CALM    29.96R
#BOARDMAN 8SW   N/A         53  45  74  CALM    29.94R
#ECHO 8SW       N/A         52  44  74  CALM    29.97
#I-84 EX 198 DOTN/A         56  43  62  CALM    N/A
#UMATILLA       N/A         51  42  71  CALM    29.89R
$$

ORZ507-291610-
NORTHERN FOOTHILLS OF THE BLUES

CITY            SKY/WX      TMP DP  RH  WIND    PRES   REMARKS
PENDLETON AIRPT SUNNY       52  42  69  E6      29.97R
#ADAMS 3WNW     N/A         45  42  89  CALM    29.95R
#ATHENA         N/A         45  41  86  CALM    29.98R
#CAYUSE         N/A         55  45  69  E2      29.93R
#HELIX SCHOOL   N/A         45  40  82  CALM    29.95R
#HELIX 3N       N/A         53  44  71  CALM    29.95R
#HELIX 6SW      N/A         48  42  80  CALM    29.97
#HOLDMAN 5SE    N/A         48  42  80  CALM    29.96S
#HOLDMAN 6E     N/A         52  42  69  CALM    29.75R
#M-F GROVE ELEM N/A         55  43  64  CALM    29.95R
#M-FREEWATER 5SEN/A         54  46  74  CALM    29.97R
#PENDLETON DNTN N/A         47  38  71  CALM    30.01R
#PDT AQUATIC CTRN/A         48  37  65  E3      29.99S
#PDT SUNRIDGE   N/A         47  42  83  CALM    29.99R
#PENDLETON 7NW  N/A         47  40  76  CALM    32.46S
#PILOT ROCK 1S  N/A         56  41  57  CALM    29.99R
#PILOT ROCK     N/A         52  42  69  SW1     30.00R
#TUTUILLA       N/A         44  41  89  CALM    29.97R
#UMAPINE 2E     N/A         51  48  89  CALM    29.94R
#WESTON SCHOOL  N/A         55  40  57  CALM    29.85R

$$

ORZ508-291610-
SOUTHERN FOOTHILLS OF THE BLUES

CITY            SKY/WX      TMP DP  RH  WIND    PRES   REMARKS
LEXINGTON       SUNNY       55  41  59  SE9     30.00R
#AJAX           N/A         55  37  51  NE1     27.74R
#CONDON SCHOOL  N/A         51  40  66  CALM    29.96S
#CONDON 5W      N/A         59  38  45  CALM    29.98S
#FOSSIL SCHOOL  N/A         46  39  76  CALM    29.96R
#HEPPNER EOC    N/A         51  42  71  SE6     29.87R
#HEPPNER 4NE    N/A         55  42  61  SE3     29.92R
#LEXINGTON 2SE  N/A         54  42  64  SE5     29.93R
#RUGGS 5NE      N/A         53  41  64  CALM    30.14S
#RUGGS 2SW      N/A         54  40  59  SW7     29.93S

$$

ORZ502-503-291610-
BLUE MOUNTAINS

CITY            SKY/WX      TMP DP  RH  WIND    PRES   REMARKS
MEACHAM         SUNNY       39  34  82  CALM    30.03S
#BATTLE MTN DOT N/A         47  39  74  S2      N/A
#CUTSFORTH PARK N/A         41  39  93  CALM    29.81R
#HARDMAN 10S    N/A         53  40  61  CALM    30.01R
#HEPPNER 15SE   N/A         50  42  74  E1      29.94R
#LADD CYN SMT   N/A         51  42  71  CALM    N/A
#LADD CREEK ODOTN/A         52  44  74  CALM    N/A
#LONG CREEK HS  N/A         50  45  83  CALM    30.03R
#N POWDER DOT   N/A         47  42  83  CALM    N/A
#PIKES PEAK     N/A         57  41  55  S8      27.99S
#TOLLGATE       N/A         49  43  80  CALM    29.93R
#TROY SCHOOL    N/A         55  48  77  CALM    29.77R
#UKIAH          N/A         38  36  92  CALM    29.93R
#WESTON 4E      N/A         58  42  55  CALM    29.88R
$$

ORZ505-291610-
JOHN DAY BASIN

CITY            SKY/WX      TMP DP  RH  WIND    PRES   REMARKS
JOHN DAY        SUNNY       53  40  61  E8      30.05R
#DAYVILLE SCHOOLN/A         49  40  71  CALM    30.00R
#MITCHELL       N/A         50  43  77  CALM    30.18R
#MITCHELL 8NW   N/A         58  38  47  CALM    30.09R
#MONUMENT HS    N/A         44  39  82  CALM    29.97R
#MT. VERNON 5SE N/A         57  42  57  CALM    30.00R
#SPRAY SCHOOL   N/A         49  N/A N/A CALM    N/A
$$

ORZ506-291610-
OCHOCO AND JOHN DAY HIGHLANDS

CITY            SKY/WX      TMP DP  RH  WIND    PRES   REMARKS
#BUCK CREEK DOT N/A         55  42  61  CALM    N/A
#HORSE RIDGE DO N/A         33  26  75  CALM    N/A
#PAULINA SCHOOL N/A         43  34  70  CALM    N/A
#PINE MTN OBS   N/A         55  41  59  SE10    N/A
#PRAIRIE CITY   N/A         41  38  89  CALM    30.18
#SENECA         N/A         37  N/A N/A CALM    N/A
#SENECA 9NW     N/A         36  34  92  CALM    29.91R
$$

ORZ049-291610-
GRANDE RONDE VALLEY

CITY            SKY/WX      TMP DP  RH  WIND    PRES   REMARKS
LA GRANDE       SUNNY       52  36  54  CALM    30.00S
#COVE SCHOOL    N/A         53  44  71  CALM    30.03R
#COVE 6NW       N/A         46  41  83  CALM    29.89R
#ELGIN 3N       N/A         47  41  79  CALM    29.99R
#ELGIN 1E       N/A         44  37  76  CALM    N/A
#IMBLER SCHOOL  N/A         46  41  83  CALM    29.97R
#ISLAND CITY 4N N/A         45  43  93  CALM    30.05R
#LADD CYN DOT   N/A         53  44  71  S2      N/A
#LA GRANDE ELEM N/A         54  43  66  CALM    30.02S
#UNION 1S       N/A         52  45  77  NE1     29.91R
$$

ORZ050-291610-
WALLOWA COUNTY

CITY            SKY/WX      TMP DP  RH  WIND    PRES   REMARKS
JOSEPH AIRPORT  PTCLDY      54  41  61  CALM    30.04R
#IMNAHA SCHOOL  N/A         59  44  57  N2      29.97S
#JOSEPH 3N      N/A         48  39  71  SW1     30.04R
#JOSEPH 3W      N/A         58  45  62  SE2     29.89R
#LOSTINE        N/A         47  41  79  CALM    29.72R
#LOSTINE 3SE    N/A         47  40  76  CALM    30.02R
#MT HOWARD 8000 N/A         57  31  37  S7      30.26S
#PROMISE 1S     N/A         52  44  74  CALM    29.99R
#WALLOWA SCHOOL N/A         45  41  86  CALM    29.98R



$$



USA.gov is the U.S. government's official web portal to all federal, state and local government web resources and services.